Probability
0 0 0 0 0 1 1 2 4 5 6 9 11 11 10 10 10 9 8 10 11 12 14 17 18 17 15 15 19 22 21 23 26 28 27 28 29 30 31 31 29 27 24 21
1 0 0 0 2 2 2 3 4 6 7 9 11 10 8 8 9 9 8 9 10 11 14 17 16 13 12 13 15 18 18 19 23 25 25 26 28 30 32 30 29 28 25 23
3 1 0 1 3 3 4 4 5 7 8 10 10 8 6 6 7 7 6 7 9 12 14 16 15 12 11 12 13 14 14 15 17 21 23 25 27 30 31 30 30 29 27 24
5 3 1 0 1 2 3 4 6 8 9 9 8 7 6 5 6 7 8 10 13 14 14 15 14 12 11 12 13 12 12 13 16 19 21 24 26 27 28 29 30 30 28 25
4 2 1 0 0 1 2 3 5 8 9 8 8 8 6 6 7 9 14 16 15 13 12 12 12 11 11 11 11 10 10 13 16 18 20 21 23 24 26 27 28 28 27 26
2 2 1 1 1 1 3 4 4 5 7 8 10 10 8 7 9 13 17 18 14 11 10 10 10 11 11 10 10 9 9 11 15 18 20 22 23 24 24 25 26 26 26 25
1 1 2 2 2 2 5 6 6 5 6 9 11 11 9 9 12 15 17 16 13 11 10 10 11 11 11 10 10 10 10 11 15 20 22 23 25 25 24 23 24 25 24 22
0 1 2 4 4 4 6 8 8 8 8 8 8 8 7 10 13 15 15 14 12 12 12 11 10 10 10 10 10 11 12 13 17 22 24 24 26 26 24 22 22 21 20 18
0 1 3 5 6 6 7 8 9 9 8 7 5 4 5 8 13 14 14 13 13 13 13 11 9 9 9 9 10 12 14 16 19 22 24 24 24 24 23 21 19 18 16 15
0 0 2 4 5 5 5 5 6 7 7 5 4 4 5 8 12 14 13 13 13 13 13 11 10 9 9 10 11 14 17 18 20 21 23 24 22 21 20 19 18 17 15 13
1 1 1 2 2 2 2 2 2 3 5 5 5 4 5 8 11 12 12 12 12 13 12 11 11 11 11 12 13 16 19 18 19 20 21 21 19 16 14 13 13 13 11 10
1 1 2 1 1 1 1 1 0 1 3 5 7 6 7 10 12 12 11 10 11 11 10 10 11 12 13 14 15 16 18 18 18 18 18 17 14 10 8 7 6 5 5 5
1 1 1 1 1 1 1 1 0 1 3 6 8 9 11 12 13 12 9 8 8 9 10 10 11 12 14 15 15 15 16 17 16 15 14 12 10 7 5 4 3 1 1 1
0 0 0 0 1 1 0 0 0 0 2 5 7 9 11 12 11 10 8 7 6 7 9 10 10 11 13 15 16 15 14 15 14 12 11 10 9 7 6 5 4 3 2 1
0 0 0 0 0 0 0 0 0 0 1 3 5 7 8 8 9 9 8 7 6 6 7 8 8 9 12 15 16 14 12 12 12 12 11 10 8 7 6 7 6 5 3 2
0 0 0 0 0 0 0 0 0 0 1 3 4 4 4 5 7 8 8 7 6 5 5 6 7 9 11 13 14 12 10 8 9 11 13 11 7 5 5 6 6 5 4 3
0 0 0 0 0 0 0 0 0 0 1 2 3 2 2 4 7 8 7 6 6 4 4 6 7 8 9 10 11 11 11 8 8 10 12 9 5 3 3 4 4 4 3 3
0 0 0 0 0 0 0 0 1 1 2 3 3 2 3 5 6 7 7 7 6 5 5 6 7 7 7 8 8 10 11 9 8 8 7 4 2 1 1 3 3 3 3 3
0 0 0 0 0 0 0 0 1 2 3 4 4 4 6 6 6 7 7 8 7 6 6 6 6 6 6 6 6 7 7 7 7 5 3 1 0 0 1 2 3 3 3 3
0 0 0 0 0 0 0 0 1 2 3 4 4 6 7 7 6 7 8 8 7 6 6 6 6 6 6 6 5 4 4 4 4 4 2 0 0 0 0 1 3 3 3 3
0 0 0 0 0 0 0 0 0 1 2 3 6 7 7 8 7 7 7 7 7 6 6 6 6 6 6 5 4 3 4 4 5 5 3 1 1 0 0 1 3 3 3 3
0 0 0 0 0 0 0 0 0 1 1 3 6 7 8 8 8 7 6 6 6 6 6 6 6 6 6 5 4 4 5 5 5 4 2 2 1 1 1 2 3 3 3 3
0 0 0 0 0 0 1 1 1 2 2 3 5 7 8 8 7 6 5 5 4 4 4 5 4 4 5 6 5 5 4 4 3 2 1 1 1 1 2 3 3 3 3 3
0 1 1 1 1 1 2 3 4 5 4 3 4 5 6 6 6 5 3 2 1 2 3 3 1 1 3 5 5 3 2 1 1 0 0 0 0 1 2 3 3 3 3 3
1 2 2 2 2 3 3 5 6 6 5 4 3 3 4 5 5 4 2 1 0 1 1 1 0 0 1 2 2 1 0 0 0 0 0 0 0 1 2 3 3 3 3 3
3 3 3 3 3 3 3 4 5 5 4 4 3 2 1 2 3 3 2 1 0 0 0 0 0 0 0 0 0 0 0 0 0 0 0 0 0 0 1 1 2 3 3 3
3 3 3 3 3 3 3 4 4 4 4 4 3 1 0 0 1 1 1 0 0 0 0 0 0 0 0 0 0 0 0 0 0 0 0 0 0 0 0 0 1 2 3 3
Wind_Speed
13 13 14 12 11 11 9 8 9 6 3 2 3 5 5 5 7 6 5 3 4 4 3 3 3 2 1 1 1 0 1 2 2 2 2 3 3 3 3 3 4 3 3 3
12 13 13 11 10 10 9 8 8 3 1 2 3 4 5 4 5 5 5 4 4 3 2 2 2 1 1 1 1 1 1 1 2 2 3 3 3 3 3 3 3 3 3 4
11 12 12 9 7 7 5 5 6 5 2 2 1 1 2 4 4 4 3 4 3 2 2 1 1 1 1 2 1 1 1 1 1 2 2 2 2 2 3 3 3 3 4 4
9 9 10 3 2 1 1 3 3 2 1 2 2 2 2 3 2 3 3 3 2 1 1 1 1 1 1 2 2 2 2 2 2 3 3 2 2 2 3 3 4 4 4 4
6 7 6 4 4 4 2 2 5 6 4 2 3 2 3 4 3 3 3 3 2 1 1 1 1 2 2 2 2 2 2 2 3 3 3 3 3 2 2 3 3 4 4 4
7 8 6 3 4 7 2 2 5 5 4 2 1 0 2 3 3 3 3 2 1 1 1 1 2 2 3 3 3 3 3 3 2 2 3 4 3 2 2 3 4 4 4 4
8 7 2 4 5 6 3 2 5 4 3 4 4 3 2 2 2 2 2 2 1 0 1 1 1 2 3 3 3 3 3 3 2 2 3 3 2 2 3 3 3 4 4 4
6 6 2 6 4 3 3 4 5 4 3 4 4 3 2 2 2 2 1 0 0 1 1 1 1 2 3 3 3 3 3 2 2 2 3 3 2 2 3 3 4 3 3 3
2 1 2 5 5 4 4 4 5 4 3 2 2 2 3 2 1 1 1 1 1 1 1 1 1 2 3 3 3 3 3 2 2 3 3 2 3 3 3 3 3 2 2 2
1 1 3 4 5 6 5 5 6 5 5 4 3 3 3 3 2 1 1 2 2 2 2 2 2 3 3 3 3 3 3 3 3 3 3 2 2 3 2 2 2 2 2 2
2 3 4 4 5 6 6 6 5 5 6 5 5 5 4 3 2 2 2 2 2 2 3 3 3 3 3 3 3 3 3 3 3 3 3 2 2 2 3 2 2 3 2 2
3 3 4 5 7 7 6 6 6 7 7 5 5 5 4 3 2 3 3 3 3 3 3 3 3 3 3 3 3 3 3 3 3 3 3 2 3 2 2 2 2 3 3 2
4 6 5 6 5 6 7 7 7 7 6 6 5 5 5 4 3 4 4 4 4 4 4 4 4 4 4 3 3 4 4 3 3 3 3 2 3 2 1 1 1 2 2 3
6 6 6 5 6 7 8 8 7 6 6 5 4 4 4 3 3 4 4 4 4 4 4 4 4 5 4 3 4 4 4 4 4 3 3 3 3 3 3 2 1 1 1 3
6 6 6 7 7 7 8 8 8 7 6 5 4 4 4 4 3 4 5 5 4 4 5 4 5 5 4 4 4 5 5 3 3 3 3 3 3 3 3 2 1 1 1 1
7 6 6 7 8 8 8 9 8 8 7 5 4 4 4 4 3 3 4 4 4 5 5 4 4 4 4 4 4 4 4 4 4 3 3 3 2 2 2 1 1 0 1 2
6 6 7 7 8 9 9 9 8 8 7 6 5 5 4 4 3 3 3 3 3 4 3 3 3 3 4 4 5 5 4 4 4 4 3 2 2 2 1 1 1 1 0 1
6 6 7 7 8 8 8 8 8 8 6 6 6 5 4 4 4 4 3 3 2 2 2 2 2 3 4 4 4 4 3 3 2 2 2 1 1 2 1 1 1 2 1 1
6 7 7 7 7 7 8 8 8 8 6 5 6 5 4 3 3 3 2 2 2 2 3 2 1 2 3 3 3 3 3 2 1 1 1 0 1 1 2 2 1 1 1 1
6 7 7 7 7 7 8 8 8 6 6 6 5 4 4 3 3 3 2 2 2 2 3 2 2 2 3 3 3 3 2 2 1 0 0 1 1 1 1 2 2 1 1 1
6 7 7 7 7 7 8 8 6 6 5 5 5 4 3 3 2 2 1 1 2 2 3 2 1 2 2 3 3 3 2 1 1 1 0 0 1 1 1 1 2 2 2 2
6 6 7 6 6 6 6 7 6 6 5 5 5 4 3 2 2 2 1 1 1 1 2 1 1 1 3 4 2 3 2 1 1 1 1 1 1 1 1 1 1 2 2 2
5 5 6 5 5 5 5 6 6 6 5 5 4 3 3 2 2 1 1 2 1 2 2 2 2 2 3 2 2 2 2 2 2 2 2 1 1 1 1 1 1 1 1 1
5 5 5 5 5 5 5 5 5 4 4 4 3 3 2 1 1 1 1 1 2 1 2 2 1 1 1 2 2 2 2 3 2 2 2 1 1 1 2 2 2 1 1 1
5 5 5 4 4 4 4 4 4 3 3 3 3 3 2 1 1 2 2 2 2 1 2 1 1 0 1 2 2 3 3 3 3 3 2 2 3 3 3 3 2 2 2 2
5 4 4 4 4 3 3 3 3 3 3 3 3 2 2 2 2 2 2 2 3 3 3 3 2 1 1 2 3 4 3 3 4 4 4 3 4 4 3 3 4 3 3 3
4 4 3 3 3 3 3 2 3 3 3 3 3 3 3 3 3 3 3 3 3 3 3 3 3 3 4 4 4 4 4 4 3 3 3 3 3 3 3 3 3 3 3 3
Wind_Direction
277 280 278 272 267 256 247 249 255 261 204 156 152 135 126 127 123 119 114 104 92 82 72 68 56 41 32 38 33 45 195 210 220 232 224 216 213 207 220 225 226 220 213 220
276 278 278 280 281 278 259 252 252 253 239 120 123 126 136 141 140 137 142 136 111 97 83 65 49 10 8 10 16 319 243 229 220 224 225 213 211 210 214 227 230 222 225 224
273 280 278 265 264 265 263 270 267 263 269 104 73 58 129 148 149 142 142 119 109 100 84 55 7 1 353 330 310 282 265 251 245 242 234 224 219 212 213 218 225 223 227 226
269 273 260 252 319 310 277 325 331 319 52 104 73 63 77 97 112 123 117 103 96 84 62 42 348 345 320 300 278 267 260 254 248 252 250 243 230 218 227 227 228 228 232 227
268 261 249 275 316 304 260 311 1 2 3 78 98 108 102 93 92 95 91 79 65 37 347 340 328 327 299 291 281 273 274 272 257 247 254 249 241 235 236 234 231 231 232 226
260 265 267 299 328 318 287 280 8 11 355 6 67 103 82 79 88 81 80 82 62 14 355 352 337 316 303 291 294 291 290 288 279 271 265 258 248 248 251 246 239 235 234 229
259 261 271 345 329 307 270 346 0 2 13 8 26 33 31 44 65 72 75 76 64 352 305 312 307 299 297 300 301 302 296 288 283 275 267 259 246 248 248 250 248 239 236 237
266 264 276 6 4 11 27 19 360 6 27 24 28 26 19 22 25 50 51 63 350 327 321 302 294 296 296 303 306 304 300 287 281 274 268 261 247 245 248 245 244 236 232 236
322 296 25 27 28 14 4 4 0 3 10 15 358 341 339 336 334 347 323 301 291 293 284 280 280 280 292 300 298 302 303 289 267 264 266 257 238 237 236 237 242 238 225 230
315 321 336 5 7 353 352 355 346 344 343 338 323 316 322 318 312 299 288 286 291 289 281 274 276 286 288 291 297 299 294 281 262 262 261 254 257 253 235 234 243 239 231 235
292 318 326 358 358 334 331 340 341 335 331 329 322 307 298 288 275 281 287 283 281 279 276 276 284 287 287 294 295 289 280 273 266 258 258 254 252 274 255 233 230 240 245 236
321 331 321 330 334 336 337 334 332 327 320 318 315 311 304 299 294 278 275 277 268 271 272 272 270 276 280 279 273 272 270 266 262 262 254 242 240 264 329 269 220 216 229 233
339 330 324 315 330 338 330 325 325 323 316 312 309 296 296 294 286 275 269 267 265 265 265 267 267 270 270 271 272 267 266 263 261 256 249 250 252 245 254 310 273 240 228 213
343 330 317 330 334 334 329 323 322 321 315 311 309 296 290 280 275 278 279 275 270 272 275 275 276 276 277 271 270 266 266 261 267 259 250 248 249 250 240 233 242 268 223 203
335 327 324 327 327 328 327 326 326 323 323 318 312 305 298 289 279 283 283 278 274 275 274 273 273 280 283 275 271 267 263 258 261 270 259 251 247 243 242 245 238 192 138 137
331 333 332 329 329 326 327 326 324 322 324 321 318 319 313 305 294 283 287 285 281 276 275 279 279 284 281 278 276 264 257 247 250 268 271 258 252 260 261 253 265 202 161 143
336 332 330 330 329 326 326 326 325 324 322 324 315 309 305 298 294 300 303 302 301 288 277 270 276 281 282 280 275 266 259 244 239 257 262 266 275 278 285 299 293 276 226 154
333 329 324 323 324 326 327 327 328 324 319 315 307 305 309 312 316 317 313 311 310 303 307 306 291 284 280 277 276 275 273 262 242 257 266 277 293 292 299 297 296 305 336 122
330 329 328 326 325 325 326 329 331 331 331 331 322 316 312 313 318 311 325 345 336 322 328 345 321 308 312 309 297 283 276 272 264 247 273 290 278 302 310 305 302 323 341 1
329 322 318 320 321 324 326 327 329 333 335 334 331 330 331 329 332 336 358 359 351 339 341 351 339 327 315 314 295 286 281 287 306 349 14 293 275 292 299 308 317 10 15 352
323 317 315 321 325 325 324 324 327 330 329 328 326 323 323 328 338 345 346 356 11 359 338 318 301 313 313 308 275 274 278 277 320 344 354 323 326 341 340 343 354 16 12 6
322 318 320 318 321 324 327 326 328 331 329 327 329 330 328 334 339 341 342 332 340 337 306 301 342 332 316 296 283 285 282 277 318 351 22 26 14 5 359 351 359 18 10 2
329 328 327 329 326 322 328 328 327 330 329 328 335 336 336 345 343 351 351 344 340 351 330 350 355 352 329 302 310 317 353 22 28 26 23 31 29 21 7 355 11 22 19 4
326 324 325 328 328 326 327 324 323 327 330 334 350 354 341 347 12 27 357 357 39 18 347 14 41 343 326 315 331 355 31 44 40 35 31 23 27 47 44 31 30 47 39 9
335 335 332 326 319 316 313 319 329 336 352 5 358 359 358 19 34 25 9 18 33 356 5 56 177 233 322 352 10 15 35 46 37 33 37 33 36 41 39 26 20 25 35 41
344 332 332 329 327 324 329 342 356 358 360 4 9 19 24 21 23 28 27 26 28 22 17 28 33 38 20 33 37 27 29 47 49 41 35 36 36 39 34 23 13 18 24 34
328 329 335 336 339 351 356 3 12 5 2 17 18 15 20 16 11 13 20 16 19 17 20 22 23 33 35 31 33 34 36 46 48 46 41 35 32 35 34 22 15 17 23 33